This demonstration page uses our WeatherBlox Daily Observations layout. Learn more.

Left ArrowRight Arrow

53.62937, 11.41316

Hourly Observations for June 9, 2017

Temp ( °F °C ) Dew Point ( °F °C ) Humidity (%) Winds ( mph kmh ) Pressure ( in mb ) Visibility ( mi km ) Precip ( " mm )
6:20 am 06:20 Mostly Sunny 61 16 54 12 77 77 ENE 3 6 29.91 1013 7 11 N/A
6:50 am 06:50 Mostly Sunny 61 16 54 12 77 77 E 6 9 29.91 1013 7 11 N/A
7:20 am 07:20 Mostly Sunny 63 17 54 12 73 73 E 6 9 29.91 1013 7 11 N/A
7:50 am 07:50 Mostly Sunny 66 19 55 13 68 68 SE 7 11 29.91 1013 7 11 N/A
8:20 am 08:20 Mostly Sunny 66 19 55 13 68 68 ESE 6 9 29.91 1013 7 11 N/A
8:50 am 08:50 Mostly Sunny 66 19 54 12 64 64 SE 6 9 29.91 1013 7 11 N/A
9:20 am 09:20 Mostly Sunny 68 20 55 13 64 64 SE 6 9 29.88 1012 7 11 N/A
9:50 am 09:50 Mostly Sunny 70 21 57 14 64 64 ESE 8 13 29.88 1012 7 11 N/A
10:20 am 10:20 Mostly Sunny 72 22 55 13 57 57 SE 9 15 29.88 1012 7 11 N/A
10:50 am 10:50 Mostly Sunny 73 23 55 13 53 53 SE 8 13 29.88 1012 7 11 N/A
11:20 am 11:20 Mostly Sunny 75 24 54 12 47 47 SE 12 19 29.85 1011 7 11 N/A
11:50 am 11:50 Mostly Sunny 75 24 57 14 54 54 ESE 15 24 29.85 1011 7 11 N/A
12:20 pm 12:20 Mostly Sunny 77 25 57 14 51 51 SE 15 24 29.83 1010 7 11 N/A
12:50 pm 12:50 Mostly Sunny 77 25 55 13 47 47 SE 14 22 29.83 1010 7 11 N/A
1:20 pm 13:20 Mostly Sunny 75 24 55 13 50 50 S 12 19 29.83 1010 7 11 N/A
1:50 pm 13:50 Mostly Sunny 77 25 55 13 47 47 SSE 10 17 29.83 1010 7 11 N/A
2:20 pm 14:20 Mostly Sunny 77 25 55 13 47 47 SE 14 22 29.83 1010 7 11 N/A
2:50 pm 14:50 Mostly Sunny 77 25 55 13 47 47 SE 14 22 29.80 1009 7 11 N/A
3:20 pm 15:20 Mostly Sunny 77 25 54 12 44 44 SSE 10 17 29.80 1009 7 11 N/A
3:50 pm 15:50 Mostly Sunny 79 26 55 13 45 45 SE 12 19 29.77 1008 7 11 N/A
4:20 pm 16:20 Mostly Sunny 81 27 54 12 39 39 SSE 12 19 29.77 1008 7 11 N/A
4:50 pm 16:50 Mostly Sunny 79 26 54 12 42 42 S 14 22 29.77 1008 7 11 N/A
5:20 pm 17:20 Mostly Sunny 77 25 55 13 47 47 SSW 14 22 29.77 1008 7 11 N/A
5:50 pm 17:50 Mostly Sunny 77 25 54 12 44 44 SSW 15 24 29.77 1008 7 11 N/A

Powered by AerisWeather